| time (UTC) | temp F | wind direction | speed knots | gust knots | rain 1hr in | rain 24hr in | rain mn in | humidity % | barometer mb |
| 20260507161618 | 59 | 306 | 0.9 | 5.2 | 0.00 | 0.01 | 0.01 | 53 | 1013.2 |
| 20260507161115 | 58 | 18 | 0.0 | 2.6 | 0.00 | 0.01 | 0.01 | 50 | 1013.4 |
| 20260507160611 | 58 | 5 | 1.7 | 5.2 | 0.00 | 0.01 | 0.01 | 56 | 1013.5 |
| 20260507160108 | 58 | 320 | 3.5 | 3.5 | 0.00 | 0.01 | 0.01 | 49 | 1013.5 |
| 20260507155603 | 57 | 264 | 5.2 | 9.6 | 0.00 | 0.01 | 0.01 | 52 | 1013.5 |
| 20260507155100 | 58 | 259 | 1.7 | 6.1 | 0.00 | 0.01 | 0.01 | 52 | 1013.7 |
| 20260507154557 | 59 | 243 | 1.7 | 6.1 | 0.00 | 0.01 | 0.01 | 49 | 1013.6 |
| 20260507154054 | 58 | 309 | 3.5 | 8.7 | 0.00 | 0.01 | 0.01 | 51 | 1013.8 |
| 20260507153551 | 57 | 311 | 1.7 | 5.2 | 0.00 | 0.01 | 0.01 | 56 | 1013.6 |
| 20260507153047 | 57 | 302 | 1.7 | 7.0 | 0.00 | 0.01 | 0.01 | 55 | 1013.9 |
| 20260507152543 | 57 | 7 | 2.6 | 5.2 | 0.00 | 0.01 | 0.01 | 55 | 1013.9 |
| 20260507152040 | 58 | 312 | 5.2 | 7.0 | 0.00 | 0.01 | 0.01 | 55 | 1013.7 |
| 20260507151536 | 58 | 318 | 0.0 | 3.5 | 0.00 | 0.01 | 0.01 | 49 | 1013.8 |
| 20260507151033 | 57 | 284 | 0.0 | 1.7 | 0.00 | 0.01 | 0.01 | 52 | 1014.0 |
| 20260507150530 | 56 | 231 | 0.9 | 3.5 | 0.00 | 0.01 | 0.01 | 50 | 1013.7 |
| 20260507150027 | 56 | 315 | 0.9 | 5.2 | 0.00 | 0.01 | 0.01 | 58 | 1013.8 |
| 20260507145521 | 58 | 301 | 0.9 | 0.9 | 0.00 | 0.01 | 0.01 | 53 | 1013.8 |
| 20260507145020 | 56 | 175 | 0.9 | 1.7 | 0.00 | 0.01 | 0.01 | 55 | 1014.0 |
| 20260507144516 | 55 | 247 | 2.6 | 2.6 | 0.00 | 0.01 | 0.01 | 57 | 1013.9 |
| 20260507144014 | 56 | 314 | 4.3 | 7.0 | 0.00 | 0.01 | 0.01 | 59 | 1014.1 |
| 20260507143511 | 57 | 331 | 0.0 | 2.6 | 0.00 | 0.01 | 0.01 | 57 | 1014.1 |
| 20260507143008 | 56 | 253 | 2.6 | 2.6 | 0.00 | 0.01 | 0.01 | 57 | 1014.1 |
| 20260507142503 | 56 | 241 | 3.5 | 3.5 | 0.00 | 0.01 | 0.01 | 56 | 1014.2 |
| 20260507142000 | 56 | 277 | 1.7 | 2.6 | 0.00 | 0.01 | 0.01 | 60 | 1014.5 |
| 20260507141456 | 56 | 301 | 0.9 | 1.7 | 0.00 | 0.01 | 0.01 | 61 | 1014.4 |
| 20260507140953 | 55 | 13 | 1.7 | 2.6 | 0.00 | 0.01 | 0.01 | 61 | 1014.6 |
| 20260507140450 | 55 | 309 | 1.7 | 3.5 | 0.00 | 0.01 | 0.01 | 66 | 1014.5 |
| 20260507135947 | 55 | 260 | 1.7 | 3.5 | 0.00 | 0.01 | 0.01 | 61 | 1014.6 |
| 20260507135444 | 55 | 312 | 2.6 | 3.5 | 0.00 | 0.01 | 0.01 | 65 | 1014.7 |
| 20260507134941 | 55 | 314 | 1.7 | 3.5 | 0.00 | 0.01 | 0.01 | 67 | 1014.7 |
| 20260507134438 | 55 | 26 | 2.6 | 3.5 | 0.00 | 0.01 | 0.01 | 65 | 1014.6 |
| 20260507133934 | 55 | 22 | 1.7 | 1.7 | 0.00 | 0.01 | 0.01 | 63 | 1014.9 |
| 20260507133430 | 54 | 22 | 0.0 | 1.7 | 0.00 | 0.01 | 0.01 | 64 | 1014.8 |
| 20260507132929 | 54 | 279 | 1.7 | 1.7 | 0.00 | 0.01 | 0.01 | 68 | 1014.8 |
| 20260507132424 | 53 | 270 | 0.0 | 1.7 | 0.00 | 0.01 | 0.01 | 72 | 1014.8 |
| 20260507131921 | 54 | 227 | 0.0 | 0.0 | 0.00 | 0.01 | 0.01 | 71 | 1014.9 |
| 20260507131418 | 53 | 199 | 0.0 | 1.7 | 0.00 | 0.01 | 0.01 | 74 | 1014.9 |
| 20260507130915 | 53 | 198 | 0.0 | 0.9 | 0.00 | 0.01 | 0.01 | 72 | 1014.9 |
| 20260507130412 | 53 | 198 | 0.9 | 1.7 | 0.00 | 0.01 | 0.01 | 79 | 1014.8 |
| 20260507125911 | 54 | 280 | 0.9 | 1.7 | 0.00 | 0.01 | 0.01 | 79 | 1014.8 |
| 20260507125409 | 53 | 281 | 0.0 | 0.9 | 0.00 | 0.01 | 0.01 | 81 | 1014.8 |
| 20260507124906 | 53 | 281 | 0.0 | 0.0 | 0.00 | 0.01 | 0.01 | 88 | 1014.9 |
| 20260507124401 | 51 | 280 | 0.0 | 0.0 | 0.00 | 0.01 | 0.01 | 90 | 1015.1 |
| 20260507123900 | 50 | 280 | 0.0 | 0.0 | 0.00 | 0.01 | 0.01 | 90 | 1014.9 |
| 20260507123357 | 50 | 280 | 0.0 | 0.0 | 0.00 | 0.01 | 0.01 | 91 | 1014.9 |
| 20260507122853 | 49 | 280 | 0.0 | 0.0 | 0.00 | 0.01 | 0.01 | 93 | 1015.2 |
| 20260507122349 | 49 | 280 | 0.9 | 1.7 | 0.00 | 0.01 | 0.01 | 95 | 1015.1 |
| 20260507121845 | 48 | 281 | 0.0 | 0.0 | 0.00 | 0.01 | 0.01 | 97 | 1015.1 |
| 20260507121341 | 47 | 281 | 0.0 | 0.0 | 0.00 | 0.01 | 0.01 | 97 | 1014.9 |
| 20260507120837 | 48 | 281 | 0.0 | 0.0 | 0.00 | 0.01 | 0.01 | 99 | 1014.9 |
| 20260507120334 | 47 | 281 | 0.0 | 0.0 | 0.00 | 0.01 | 0.01 | 99 | 1015.2 |
| 20260507115830 | 47 | 281 | 0.0 | 0.0 | 0.00 | 0.01 | 0.01 | 99 | 1014.9 |
| 20260507115326 | 47 | 281 | 0.0 | 0.9 | 0.00 | 0.01 | 0.01 | 99 | 1015.1 |
| 20260507114822 | 47 | 281 | 0.0 | 0.0 | 0.00 | 0.01 | 0.01 | 99 | 1015.1 |
| 20260507114319 | 46 | 281 | 0.0 | 0.0 | 0.00 | 0.01 | 0.01 | 99 | 1014.8 |
| 20260507113817 | 46 | 281 | 0.0 | 0.0 | 0.00 | 0.01 | 0.01 | 99 | 1014.9 |
| 20260507113313 | 46 | 281 | 0.9 | 0.9 | 0.00 | 0.01 | 0.01 | 99 | 1014.7 |
| 20260507112811 | 46 | 281 | 0.9 | 0.9 | 0.00 | 0.01 | 0.01 | 99 | 1014.6 |
| 20260507112308 | 46 | 281 | 0.0 | 0.0 | 0.00 | 0.01 | 0.01 | 99 | 1014.5 |
| 20260507111806 | 46 | 281 | 0.0 | 0.0 | 0.00 | 0.01 | 0.01 | 99 | 1014.5 |
| 20260507111302 | 46 | 281 | 0.0 | 0.0 | 0.00 | 0.01 | 0.01 | 99 | 1014.5 |
| 20260507110758 | 46 | 281 | 1.7 | 1.7 | 0.00 | 0.01 | 0.01 | 99 | 1014.5 |
| 20260507110255 | 46 | 279 | 0.0 | 0.0 | 0.00 | 0.01 | 0.01 | 99 | 1014.4 |
| 20260507105752 | 46 | 279 | 0.0 | 0.9 | 0.00 | 0.01 | 0.01 | 99 | 1014.3 |
| 20260507105247 | 46 | 279 | 0.0 | 0.9 | 0.00 | 0.01 | 0.01 | 99 | 1014.3 |
| 20260507104745 | 46 | 279 | 0.0 | 0.0 | 0.00 | 0.01 | 0.01 | 99 | 1014.1 |
| 20260507104242 | 46 | 279 | 0.0 | 0.0 | 0.00 | 0.01 | 0.01 | 99 | 1014.2 |
| 20260507103738 | 46 | 272 | 0.0 | 0.9 | 0.00 | 0.01 | 0.01 | 99 | 1014.0 |
| 20260507103234 | 46 | 272 | 0.0 | 0.0 | 0.00 | 0.01 | 0.01 | 99 | 1014.2 |
| 20260507102730 | 46 | 280 | 0.0 | 0.0 | 0.00 | 0.01 | 0.01 | 99 | 1014.3 |
| 20260507102227 | 46 | 280 | 0.0 | 0.0 | 0.00 | 0.01 | 0.01 | 99 | 1014.1 |
| 20260507101723 | 46 | 280 | 0.0 | 0.0 | 0.00 | 0.01 | 0.01 | 99 | 1014.3 |
| 20260507101219 | 46 | 280 | 0.0 | 0.0 | 0.00 | 0.01 | 0.01 | 99 | 1014.3 |
| 20260507100716 | 46 | 280 | 0.0 | 0.0 | 0.00 | 0.01 | 0.01 | 99 | 1014.1 |
| 20260507100214 | 46 | 280 | 0.0 | 0.0 | 0.00 | 0.01 | 0.01 | 99 | 1013.9 |
| 20260507095712 | 46 | 279 | 0.0 | 0.0 | 0.00 | 0.01 | 0.01 | 99 | 1014.1 |
| 20260507095208 | 45 | 279 | 0.0 | 0.0 | 0.00 | 0.01 | 0.01 | 99 | 1014.2 |
| 20260507094705 | 46 | 279 | 0.0 | 0.0 | 0.00 | 0.01 | 0.01 | 99 | 1014.0 |
| 20260507094202 | 45 | 279 | 0.0 | 0.0 | 0.00 | 0.01 | 0.01 | 99 | 1014.0 |
| 20260507093659 | 45 | 279 | 0.0 | 0.0 | 0.00 | 0.01 | 0.01 | 99 | 1013.6 |
| 20260507093158 | 46 | 279 | 0.0 | 0.0 | 0.00 | 0.01 | 0.01 | 99 | 1013.9 |
| 20260507092654 | 46 | 279 | 0.0 | 0.0 | 0.00 | 0.01 | 0.01 | 99 | 1014.1 |
| 20260507092151 | 46 | 279 | 0.0 | 0.0 | 0.00 | 0.01 | 0.01 | 99 | 1014.4 |
| 20260507091647 | 45 | 279 | 0.0 | 0.0 | 0.00 | 0.01 | 0.01 | 99 | 1013.9 |
| 20260507091144 | 45 | 279 | 0.0 | 0.0 | 0.00 | 0.01 | 0.01 | 99 | 1014.0 |
| 20260507090639 | 46 | 280 | 0.9 | 0.9 | 0.00 | 0.01 | 0.01 | 98 | 1013.9 |
| 20260507090137 | 46 | 295 | 0.0 | 0.0 | 0.00 | 0.01 | 0.01 | 98 | 1013.7 |
| 20260507085634 | 47 | 295 | 0.0 | 0.0 | 0.00 | 0.01 | 0.01 | 98 | 1013.6 |
| 20260507085130 | 47 | 296 | 0.0 | 0.0 | 0.00 | 0.01 | 0.01 | 98 | 1014.0 |
| 20260507084627 | 47 | 296 | 0.0 | 0.0 | 0.00 | 0.01 | 0.01 | 98 | 1014.0 |
| 20260507084124 | 48 | 296 | 0.0 | 0.0 | 0.00 | 0.01 | 0.01 | 98 | 1013.8 |
| 20260507083620 | 48 | 296 | 0.0 | 0.0 | 0.00 | 0.01 | 0.01 | 98 | 1013.8 |
| 20260507083118 | 48 | 296 | 0.0 | 0.0 | 0.00 | 0.01 | 0.01 | 98 | 1013.7 |
| 20260507082613 | 48 | 295 | 0.0 | 0.0 | 0.00 | 0.01 | 0.01 | 98 | 1013.8 |
| 20260507082109 | 48 | 295 | 0.0 | 0.0 | 0.00 | 0.01 | 0.01 | 98 | 1014.0 |
| 20260507081606 | 48 | 295 | 0.0 | 0.0 | 0.00 | 0.01 | 0.01 | 98 | 1013.8 |
| 20260507081103 | 49 | 295 | 0.0 | 0.0 | 0.00 | 0.01 | 0.01 | 98 | 1014.1 |
| 20260507080559 | 49 | 295 | 0.0 | 0.0 | 0.00 | 0.01 | 0.01 | 98 | 1013.9 |
| 20260507080056 | 49 | 295 | 0.0 | 0.0 | 0.00 | 0.01 | 0.01 | 98 | 1013.8 |
| 20260507075551 | 49 | 296 | 0.0 | 0.0 | 0.00 | 0.01 | 0.01 | 98 | 1014.0 |
| 20260507075047 | 49 | 295 | 0.0 | 0.0 | 0.00 | 0.01 | 0.01 | 98 | 1013.9 |
| 20260507074544 | 49 | 295 | 0.0 | 0.0 | 0.00 | 0.01 | 0.01 | 98 | 1013.7 |
| 20260507074043 | 49 | 295 | 0.0 | 0.0 | 0.00 | 0.01 | 0.01 | 98 | 1013.8 |
| 20260507073538 | 49 | 295 | 0.0 | 0.0 | 0.00 | 0.01 | 0.01 | 98 | 1014.1 |
| 20260507073035 | 49 | 296 | 0.0 | 0.9 | 0.00 | 0.01 | 0.01 | 99 | 1014.1 |
| 20260507072533 | 50 | 299 | 1.7 | 1.7 | 0.00 | 0.01 | 0.01 | 99 | 1014.0 |
| 20260507072030 | 50 | 301 | 0.9 | 1.7 | 0.00 | 0.01 | 0.01 | 99 | 1013.9 |
| 20260507071527 | 50 | 301 | 0.0 | 0.0 | 0.00 | 0.01 | 0.01 | 99 | 1014.0 |
| 20260507071024 | 50 | 301 | 0.0 | 0.0 | 0.00 | 0.01 | 0.01 | 99 | 1013.8 |
| 20260507070521 | 50 | 301 | 0.0 | 0.0 | 0.00 | 0.01 | 0.01 | 99 | 1013.8 |
| 20260507070018 | 50 | 301 | 0.0 | 0.0 | 0.00 | 0.01 | 0.01 | 99 | 1013.9 |
| 20260507065514 | 50 | 301 | 0.0 | 0.0 | 0.00 | 0.01 | 0.01 | 99 | 1013.8 |
| 20260507065011 | 50 | 301 | 0.0 | 0.0 | 0.00 | 0.01 | 0.01 | 99 | 1014.0 |
| 20260507064509 | 50 | 301 | 0.0 | 0.0 | 0.00 | 0.01 | 0.01 | 99 | 1014.0 |
| 20260507064008 | 50 | 300 | 0.0 | 0.9 | 0.00 | 0.01 | 0.01 | 99 | 1013.9 |
| 20260507063504 | 50 | 300 | 0.0 | 0.0 | 0.00 | 0.01 | 0.01 | 98 | 1013.8 |
| 20260507063001 | 50 | 300 | 0.0 | 0.0 | 0.00 | 0.01 | 0.01 | 99 | 1013.8 |
| 20260507062458 | 50 | 300 | 0.0 | 0.0 | 0.00 | 0.01 | 0.01 | 98 | 1014.0 |
| 20260507061955 | 50 | 300 | 0.0 | 0.0 | 0.00 | 0.01 | 0.01 | 98 | 1014.1 |
| 20260507061453 | 50 | 300 | 0.0 | 0.0 | 0.00 | 0.01 | 0.01 | 98 | 1014.0 |
| 20260507060951 | 50 | 300 | 0.0 | 0.0 | 0.00 | 0.01 | 0.01 | 98 | 1013.9 |
| 20260507060448 | 50 | 300 | 0.0 | 0.0 | 0.00 | 0.01 | 0.01 | 98 | 1014.1 |
| 20260507055945 | 50 | 300 | 0.0 | 0.0 | 0.00 | 0.01 | 0.01 | 98 | 1014.1 |
| 20260507055440 | 50 | 300 | 0.0 | 0.0 | 0.00 | 0.01 | 0.01 | 98 | 1014.2 |
| 20260507054937 | 50 | 300 | 0.0 | 0.0 | 0.00 | 0.01 | 0.01 | 98 | 1014.1 |
| 20260507054433 | 50 | 300 | 0.0 | 0.0 | 0.00 | 0.01 | 0.01 | 98 | 1014.2 |
| 20260507053931 | 50 | 300 | 0.0 | 0.0 | 0.00 | 0.01 | 0.01 | 98 | 1014.2 |
| 20260507053428 | 50 | 300 | 0.0 | 0.0 | 0.00 | 0.01 | 0.01 | 98 | 1014.3 |
| 20260507052926 | 50 | 300 | 0.0 | 0.0 | 0.00 | 0.01 | 0.01 | 98 | 1014.3 |
| 20260507052423 | 50 | 300 | 0.0 | 0.0 | 0.00 | 0.01 | 0.01 | 98 | 1014.2 |
| 20260507051920 | 50 | 300 | 0.0 | 0.0 | 0.00 | 0.01 | 0.01 | 98 | 1014.1 |
| 20260507051418 | 51 | 300 | 0.0 | 0.0 | 0.00 | 0.01 | 0.01 | 97 | 1014.3 |
| 20260507050915 | 51 | 301 | 0.0 | 0.0 | 0.00 | 0.01 | 0.01 | 97 | 1014.2 |
| 20260507050411 | 51 | 301 | 0.0 | 0.9 | 0.00 | 0.01 | 0.01 | 97 | 1014.2 |
| 20260507045908 | 51 | 300 | 0.0 | 0.0 | 0.00 | 0.01 | 0.01 | 97 | 1014.7 |
| 20260507045405 | 51 | 300 | 0.0 | 0.0 | 0.00 | 0.01 | 0.01 | 97 | 1014.5 |
| 20260507044902 | 51 | 300 | 0.0 | 0.0 | 0.00 | 0.01 | 0.01 | 96 | 1014.5 |
| 20260507044358 | 51 | 300 | 0.0 | 0.0 | 0.00 | 0.01 | 0.01 | 96 | 1014.5 |
| 20260507043855 | 51 | 300 | 0.0 | 0.0 | 0.00 | 0.01 | 0.01 | 96 | 1014.3 |
| 20260507043351 | 51 | 301 | 0.0 | 0.0 | 0.00 | 0.01 | 0.01 | 96 | 1014.3 |
| 20260507042847 | 51 | 301 | 0.0 | 0.0 | 0.00 | 0.01 | 0.01 | 96 | 1014.3 |
| 20260507042343 | 51 | 304 | 0.9 | 1.7 | 0.07 | 0.01 | 0.01 | 96 | 1014.3 |
| 20260507041840 | 51 | 311 | 2.6 | 2.6 | 0.07 | 0.01 | 0.01 | 96 | 1014.3 |
| 20260507041337 | 52 | 320 | 4.3 | 5.2 | 0.00 | 0.00 | 0.00 | 96 | 1014.2 |
| 20260507040834 | 52 | 310 | 2.6 | 5.2 | 0.00 | 0.00 | 0.00 | 96 | 1014.1 |
| 20260507040330 | 52 | 198 | 0.0 | 0.9 | 0.00 | 0.00 | 0.00 | 94 | 1013.8 |
| 20260507035826 | 53 | 197 | 0.9 | 0.9 | 0.00 | 0.67 | 0.67 | 93 | 1013.8 |
| 20260507035321 | 53 | 290 | 0.9 | 3.5 | 0.00 | 0.67 | 0.67 | 91 | 1014.0 |
| 20260507034820 | 53 | 254 | 1.7 | 2.6 | 0.05 | 0.67 | 0.67 | 91 | 1014.1 |
| 20260507034316 | 53 | 226 | 0.0 | 0.9 | 0.05 | 0.67 | 0.67 | 94 | 1013.9 |
| 20260507033814 | 52 | 247 | 0.9 | 1.7 | 0.00 | 0.66 | 0.66 | 95 | 1013.9 |
| 20260507033312 | 54 | 322 | 0.0 | 2.6 | 0.00 | 0.66 | 0.66 | 98 | 1013.8 |
| 20260507032808 | 54 | 265 | 0.0 | 0.0 | 0.00 | 0.66 | 0.66 | 98 | 1013.7 |
| 20260507032306 | 54 | 265 | 0.0 | 0.0 | 0.00 | 0.66 | 0.66 | 98 | 1013.7 |
| 20260507031801 | 54 | 265 | 0.0 | 0.0 | 0.00 | 0.66 | 0.66 | 98 | 1013.8 |
| 20260507031258 | 54 | 265 | 0.0 | 0.0 | 0.00 | 0.66 | 0.66 | 98 | 1013.9 |
| 20260507030755 | 54 | 265 | 0.0 | 0.0 | 0.00 | 0.66 | 0.66 | 98 | 1013.7 |
| 20260507030252 | 54 | 265 | 0.0 | 0.0 | 0.00 | 0.66 | 0.66 | 98 | 1013.7 |
| 20260507025749 | 54 | 265 | 0.0 | 0.0 | 0.00 | 0.66 | 0.66 | 98 | 1013.8 |
| 20260507025246 | 54 | 265 | 0.0 | 0.0 | 0.00 | 0.66 | 0.66 | 98 | 1014.0 |
| 20260507024745 | 54 | 265 | 0.0 | 0.0 | 0.00 | 0.66 | 0.66 | 97 | 1014.1 |
| 20260507024241 | 54 | 265 | 0.0 | 0.0 | 0.00 | 0.66 | 0.66 | 97 | 1014.0 |
| 20260507023737 | 54 | 265 | 0.0 | 0.0 | 0.00 | 0.66 | 0.66 | 98 | 1014.3 |
| 20260507023234 | 54 | 265 | 0.0 | 0.0 | 0.00 | 0.66 | 0.66 | 98 | 1014.0 |
| 20260507022731 | 54 | 265 | 0.0 | 0.0 | 0.00 | 0.66 | 0.66 | 98 | 1014.0 |
| 20260507022227 | 54 | 265 | 0.0 | 0.0 | 0.00 | 0.66 | 0.66 | 98 | 1013.7 |
| 20260507021724 | 54 | 265 | 0.0 | 0.0 | 0.00 | 0.66 | 0.66 | 98 | 1013.7 |
| 20260507021219 | 54 | 249 | 0.0 | 0.0 | 0.00 | 0.66 | 0.66 | 98 | 1013.6 |
| 20260507020718 | 54 | 249 | 0.0 | 0.0 | 0.00 | 0.66 | 0.66 | 98 | 1013.1 |
| 20260507020213 | 54 | 249 | 0.0 | 0.0 | 0.00 | 0.66 | 0.66 | 98 | 1013.1 |
| 20260507015712 | 54 | 249 | 0.0 | 0.0 | 0.00 | 0.66 | 0.66 | 98 | 1013.4 |
| 20260507015209 | 54 | 249 | 0.0 | 0.0 | 0.00 | 0.66 | 0.66 | 98 | 1013.6 |
| 20260507014705 | 54 | 249 | 0.0 | 0.0 | 0.00 | 0.66 | 0.66 | 98 | 1013.7 |
| 20260507014201 | 55 | 249 | 0.0 | 0.0 | 0.00 | 0.66 | 0.66 | 98 | 1013.2 |
| 20260507013658 | 55 | 249 | 0.0 | 0.0 | 0.00 | 0.66 | 0.66 | 97 | 1013.5 |
| 20260507013156 | 55 | 249 | 0.0 | 0.0 | 0.00 | 0.66 | 0.66 | 97 | 1013.7 |
| 20260507012653 | 55 | 248 | 0.0 | 0.0 | 0.00 | 0.66 | 0.66 | 97 | 1013.2 |
| 20260507012148 | 55 | 248 | 0.0 | 0.0 | 0.00 | 0.66 | 0.66 | 97 | 1012.8 |
| 20260507011647 | 55 | 249 | 0.0 | 0.0 | 0.00 | 0.66 | 0.66 | 97 | 1013.1 |
| 20260507011142 | 55 | 249 | 0.0 | 0.0 | 0.00 | 0.66 | 0.66 | 97 | 1013.0 |
| 20260507010637 | 55 | 249 | 0.0 | 0.0 | 0.00 | 0.66 | 0.66 | 96 | 1012.6 |
| 20260507010133 | 55 | 249 | 0.0 | 0.0 | 0.00 | 0.66 | 0.66 | 96 | 1012.8 |
| 20260507005631 | 55 | 249 | 0.0 | 0.0 | 0.00 | 0.66 | 0.66 | 96 | 1013.1 |
| 20260507005127 | 55 | 249 | 0.0 | 0.0 | 0.00 | 0.66 | 0.66 | 96 | 1013.2 |
| 20260507004624 | 55 | 248 | 0.0 | 0.0 | 0.00 | 0.66 | 0.66 | 96 | 1013.1 |
| 20260507004122 | 55 | 248 | 0.0 | 0.0 | 0.00 | 0.66 | 0.66 | 95 | 1012.8 |
| 20260507003618 | 55 | 248 | 0.0 | 0.0 | 0.00 | 0.66 | 0.66 | 96 | 1012.8 |
| 20260507003113 | 55 | 248 | 0.0 | 0.0 | 0.00 | 0.66 | 0.66 | 96 | 1012.9 |
| 20260507002609 | 55 | 248 | 0.0 | 0.0 | 0.00 | 0.66 | 0.66 | 96 | 1012.7 |
| 20260507002105 | 55 | 248 | 0.0 | 0.0 | 0.00 | 0.66 | 0.66 | 96 | 1012.8 |
| 20260507001602 | 55 | 174 | 0.0 | 0.0 | 0.00 | 0.66 | 0.66 | 96 | 1012.4 |
| 20260507001100 | 55 | 174 | 0.0 | 0.0 | 0.00 | 0.66 | 0.66 | 96 | 1012.6 |
| 20260507000556 | 55 | 174 | 0.0 | 0.0 | 0.00 | 0.66 | 0.66 | 96 | 1012.6 |
| 20260507000051 | 55 | 174 | 0.0 | 0.0 | 0.00 | 0.66 | 0.66 | 96 | 1012.6 |
| 20260506235549 | 55 | 174 | 0.0 | 0.0 | 0.00 | 0.66 | 0.66 | 96 | 1012.4 |
| 20260506235044 | 55 | 174 | 0.0 | 0.0 | 0.00 | 0.66 | 0.66 | 96 | 1012.2 |
| 20260506234542 | 56 | 174 | 0.0 | 0.0 | 0.00 | 0.66 | 0.66 | 96 | 1012.3 |
| 20260506234039 | 56 | 175 | 0.0 | 0.0 | 0.00 | 0.66 | 0.66 | 94 | 1012.6 |
| 20260506233536 | 56 | 175 | 0.0 | 0.0 | 0.00 | 0.66 | 0.66 | 93 | 1013.0 |
| 20260506233033 | 56 | 169 | 0.0 | 0.0 | 0.00 | 0.66 | 0.66 | 93 | 1013.1 |
| 20260506232529 | 56 | 168 | 0.0 | 0.0 | 0.00 | 0.66 | 0.66 | 93 | 1012.6 |
| 20260506232024 | 56 | 168 | 0.0 | 0.0 | 0.00 | 0.66 | 0.66 | 94 | 1012.5 |
| 20260506231522 | 56 | 169 | 0.0 | 0.0 | 0.00 | 0.66 | 0.66 | 93 | 1012.9 |
| 20260506231020 | 56 | 168 | 0.0 | 0.0 | 0.00 | 0.66 | 0.66 | 93 | 1012.7 |
| 20260506230516 | 56 | 168 | 0.0 | 0.0 | 0.00 | 0.66 | 0.66 | 93 | 1012.7 |
| 20260506230014 | 56 | 168 | 0.0 | 0.0 | 0.00 | 0.66 | 0.66 | 92 | 1012.7 |
| 20260506225511 | 56 | 168 | 0.0 | 0.0 | 0.00 | 0.66 | 0.66 | 92 | 1012.7 |
| 20260506225007 | 56 | 168 | 0.0 | 0.0 | 0.00 | 0.66 | 0.66 | 92 | 1012.6 |
| 20260506224503 | 56 | 168 | 0.0 | 0.0 | 0.00 | 0.66 | 0.66 | 90 | 1012.8 |
| 20260506224000 | 56 | 169 | 0.0 | 0.0 | 0.00 | 0.66 | 0.66 | 90 | 1012.9 |
| 20260506223456 | 56 | 92 | 0.0 | 0.0 | 0.00 | 0.66 | 0.66 | 90 | 1012.8 |
| 20260506222953 | 56 | 184 | 0.9 | 1.7 | 0.00 | 0.66 | 0.66 | 89 | 1012.6 |
| 20260506222450 | 57 | 306 | 0.0 | 0.0 | 0.00 | 0.66 | 0.66 | 90 | 1012.5 |
| 20260506221946 | 57 | 307 | 0.0 | 0.0 | 0.00 | 0.66 | 0.66 | 88 | 1012.3 |
| 20260506221443 | 57 | 306 | 0.0 | 0.0 | 0.00 | 0.66 | 0.66 | 89 | 1012.5 |
| 20260506220941 | 57 | 307 | 0.9 | 0.9 | 0.00 | 0.66 | 0.66 | 88 | 1012.4 |
| 20260506220437 | 57 | 307 | 0.0 | 0.9 | 0.00 | 0.66 | 0.66 | 87 | 1012.2 |
| 20260506215933 | 57 | 307 | 0.0 | 0.0 | 0.00 | 0.66 | 0.66 | 88 | 1012.1 |
| 20260506215430 | 56 | 306 | 0.0 | 0.0 | 0.00 | 0.66 | 0.66 | 87 | 1012.2 |
| 20260506214925 | 56 | 306 | 0.0 | 0.0 | 0.00 | 0.66 | 0.66 | 87 | 1012.3 |
| 20260506214423 | 56 | 306 | 0.9 | 0.9 | 0.00 | 0.66 | 0.66 | 88 | 1012.2 |
| 20260506213920 | 56 | 306 | 0.0 | 0.0 | 0.00 | 0.66 | 0.66 | 88 | 1012.4 |
| 20260506213418 | 56 | 307 | 0.0 | 0.0 | 0.00 | 0.66 | 0.66 | 87 | 1012.3 |
| 20260506212915 | 56 | 307 | 0.0 | 0.0 | 0.00 | 0.66 | 0.66 | 87 | 1012.3 |
| 20260506212411 | 56 | 307 | 0.0 | 0.0 | 0.00 | 0.66 | 0.66 | 87 | 1012.0 |
| 20260506211906 | 56 | 307 | 0.0 | 0.0 | 0.00 | 0.66 | 0.66 | 87 | 1012.3 |
| 20260506211402 | 56 | 307 | 0.0 | 0.9 | 0.00 | 0.66 | 0.66 | 86 | 1012.1 |
| 20260506210859 | 56 | 307 | 0.0 | 0.9 | 0.00 | 0.66 | 0.66 | 87 | 1012.1 |
| 20260506210356 | 56 | 307 | 0.0 | 0.9 | 0.00 | 0.66 | 0.66 | 88 | 1012.1 |
| 20260506205853 | 56 | 307 | 0.0 | 0.0 | 0.00 | 0.66 | 0.66 | 89 | 1012.1 |
| 20260506205349 | 56 | 307 | 0.0 | 0.0 | 0.00 | 0.66 | 0.66 | 88 | 1012.1 |
| 20260506204846 | 56 | 313 | 2.6 | 2.6 | 0.00 | 0.66 | 0.66 | 89 | 1011.9 |
| 20260506204344 | 56 | 290 | 0.9 | 1.7 | 0.00 | 0.66 | 0.66 | 89 | 1012.1 |
| 20260506203841 | 56 | 306 | 0.0 | 0.9 | 0.00 | 0.66 | 0.66 | 88 | 1011.7 |
| 20260506203338 | 56 | 307 | 0.9 | 0.9 | 0.00 | 0.66 | 0.66 | 88 | 1011.9 |
| 20260506202835 | 56 | 286 | 0.0 | 0.9 | 0.00 | 0.66 | 0.66 | 88 | 1011.7 |
| 20260506202332 | 57 | 257 | 1.7 | 1.7 | 0.00 | 0.66 | 0.66 | 88 | 1011.7 |
| 20260506201828 | 56 | 298 | 0.9 | 1.7 | 0.00 | 0.66 | 0.66 | 89 | 1011.9 |
| 20260506201326 | 56 | 288 | 1.7 | 1.7 | 0.00 | 0.66 | 0.66 | 90 | 1011.6 |
| 20260506200822 | 56 | 253 | 0.9 | 2.6 | 0.00 | 0.66 | 0.66 | 91 | 1011.7 |
| 20260506200318 | 56 | 322 | 1.7 | 1.7 | 0.00 | 0.66 | 0.66 | 91 | 1011.6 |
| 20260506195815 | 56 | 285 | 0.9 | 2.6 | 0.00 | 0.66 | 0.66 | 92 | 1011.7 |
| 20260506195312 | 55 | 313 | 2.6 | 3.5 | 0.00 | 0.66 | 0.66 | 91 | 1011.7 |
| 20260506194809 | 56 | 308 | 1.7 | 2.6 | 0.00 | 0.66 | 0.66 | 91 | 1011.6 |
| 20260506194305 | 56 | 287 | 2.6 | 3.5 | 0.00 | 0.66 | 0.66 | 91 | 1011.8 |
| 20260506193803 | 56 | 323 | 1.7 | 3.5 | 0.00 | 0.66 | 0.66 | 91 | 1011.6 |
| 20260506193300 | 56 | 311 | 3.5 | 6.1 | 0.00 | 0.66 | 0.66 | 91 | 1011.6 |
| 20260506192756 | 55 | 304 | 1.7 | 3.5 | 0.00 | 0.66 | 0.66 | 92 | 1011.4 |
| 20260506192253 | 55 | 308 | 1.7 | 5.2 | 0.00 | 0.66 | 0.66 | 91 | 1011.6 |
| 20260506191750 | 55 | 312 | 0.9 | 3.5 | 0.00 | 0.66 | 0.66 | 92 | 1011.5 |
| 20260506191246 | 55 | 307 | 2.6 | 3.5 | 0.00 | 0.66 | 0.66 | 92 | 1011.5 |
| 20260506190743 | 55 | 311 | 4.3 | 5.2 | 0.00 | 0.66 | 0.66 | 92 | 1011.5 |
| 20260506190240 | 56 | 309 | 3.5 | 6.1 | 0.00 | 0.66 | 0.66 | 92 | 1011.4 |
| 20260506185737 | 56 | 277 | 2.6 | 5.2 | 0.00 | 0.66 | 0.66 | 91 | 1011.4 |
| 20260506185233 | 56 | 309 | 1.7 | 3.5 | 0.00 | 0.66 | 0.66 | 93 | 1011.7 |
| 20260506184731 | 56 | 316 | 3.5 | 5.2 | 0.00 | 0.66 | 0.66 | 93 | 1011.8 |
| 20260506184228 | 55 | 318 | 4.3 | 6.1 | 0.00 | 0.66 | 0.66 | 94 | 1011.7 |
| 20260506183725 | 55 | 313 | 3.5 | 7.0 | 0.00 | 0.66 | 0.66 | 93 | 1011.6 |
| 20260506183220 | 55 | 312 | 2.6 | 2.6 | 0.00 | 0.66 | 0.66 | 92 | 1011.3 |
| 20260506182718 | 55 | 312 | 5.2 | 7.8 | 0.00 | 0.66 | 0.66 | 93 | 1011.3 |
| 20260506182214 | 55 | 309 | 3.5 | 6.1 | 0.00 | 0.66 | 0.66 | 93 | 1011.2 |
| 20260506181712 | 55 | 314 | 3.5 | 5.2 | 0.00 | 0.66 | 0.66 | 93 | 1011.3 |
| 20260506181204 | 56 | 297 | 5.2 | 8.7 | 0.00 | 0.66 | 0.66 | 93 | 1011.4 |
| 20260506180702 | 56 | 312 | 5.2 | 7.0 | 0.00 | 0.66 | 0.66 | 93 | 1011.4 |
| 20260506180157 | 56 | 307 | 4.3 | 7.0 | 0.00 | 0.66 | 0.66 | 93 | 1011.2 |
| 20260506175654 | 56 | 309 | 3.5 | 5.2 | 0.00 | 0.66 | 0.66 | 94 | 1011.2 |
| 20260506175150 | 56 | 311 | 5.2 | 6.1 | 0.00 | 0.66 | 0.66 | 94 | 1011.4 |
| 20260506174648 | 56 | 307 | 3.5 | 7.0 | 0.00 | 0.66 | 0.66 | 94 | 1011.2 |
| 20260506174145 | 56 | 311 | 7.0 | 7.0 | 0.00 | 0.66 | 0.66 | 94 | 1011.3 |
| 20260506173643 | 56 | 277 | 5.2 | 7.0 | 0.00 | 0.66 | 0.66 | 95 | 1011.1 |
| 20260506173140 | 56 | 313 | 6.1 | 8.7 | 0.00 | 0.66 | 0.66 | 95 | 1010.8 |
| 20260506172637 | 56 | 307 | 3.5 | 5.2 | 0.00 | 0.66 | 0.66 | 96 | 1011.1 |
| 20260506172133 | 56 | 312 | 5.2 | 7.0 | 0.00 | 0.66 | 0.66 | 95 | 1011.1 |
| 20260506171630 | 56 | 311 | 3.5 | 7.8 | 0.00 | 0.66 | 0.66 | 96 | 1011.4 |
| 20260506171128 | 56 | 318 | 0.9 | 2.6 | 0.00 | 0.66 | 0.66 | 96 | 1011.1 |
| 20260506170626 | 56 | 317 | 6.1 | 7.0 | 0.00 | 0.66 | 0.66 | 96 | 1011.2 |
| 20260506170122 | 56 | 320 | 2.6 | 7.0 | 0.00 | 0.66 | 0.66 | 95 | 1011.3 |
| 20260506165621 | 56 | 317 | 4.3 | 5.2 | 0.00 | 0.66 | 0.66 | 96 | 1011.2 |
| 20260506165116 | 56 | 314 | 6.1 | 7.8 | 0.00 | 0.66 | 0.66 | 96 | 1011.1 |
| 20260506164614 | 56 | 316 | 2.6 | 6.1 | 0.00 | 0.66 | 0.66 | 96 | 1010.9 |
| 20260506164112 | 56 | 281 | 2.6 | 7.0 | 0.00 | 0.66 | 0.66 | 97 | 1011.2 |
| 20260506163607 | 56 | 309 | 5.2 | 7.0 | 0.00 | 0.66 | 0.66 | 97 | 1011.3 |
| 20260506163103 | 56 | 311 | 4.3 | 5.2 | 0.00 | 0.66 | 0.66 | 97 | 1011.2 |
| 20260506162559 | 56 | 307 | 5.2 | 7.0 | 0.00 | 0.66 | 0.66 | 97 | 1010.8 |
| 20260506162051 | 56 | 302 | 4.3 | 6.1 | 0.00 | 0.66 | 0.66 | 97 | 1011.1 |